DW9584 Weather Reports


Display with metric or nautical units.
time (UTC)temp
F
wind
direction
speed
MPH
gust
MPH
rain 1hr
in
rain 24hr
in
rain mn
in
humidity
%
barometer
mb
20260506041531 66 129 0.0 4.0 0.00 0.00 0.00 69 1011.2
20260506040028 66 169 1.0 3.0 0.00 0.00 0.00 68 1011.1
20260506034526 67 276 0.0 3.0 0.00 0.00 0.00 67 1011.1
20260506033027 67 231 0.0 2.0 0.00 0.00 0.00 67 1010.9
20260506031523 67 318 0.0 3.0 0.00 0.00 0.00 66 1011.0
20260506030023 67 204 0.0 3.0 0.00 0.00 0.00 65 1011.1
20260506024527 67 174 1.0 4.0 0.00 0.00 0.00 65 1011.1
20260506023025 67 348 0.0 2.0 0.00 0.00 0.00 65 1011.1
20260506021528 68 329 0.0 2.0 0.00 0.00 0.00 63 1011.1
20260506020026 68 124 0.0 4.0 0.00 0.00 0.00 61 1011.0
20260506014532 69 217 0.0 2.0 0.00 0.00 0.00 58 1010.9
20260506013028 70 276 0.0 3.0 0.00 0.00 0.00 55 1010.7
20260506011521 71 123 0.0 2.0 0.00 0.00 0.00 51 1010.5
20260506010028 72 248 0.0 2.0 0.00 0.00 0.00 50 1010.3
20260506004537 72 1 0.0 3.0 0.00 0.00 0.00 48 1010.1
20260506003031 74 182 2.0 6.0 0.00 0.00 0.00 46 1010.1
20260506001514 74 248 1.0 4.0 0.00 0.00 0.00 46 1009.9
20260506000016 74 262 0.0 3.0 0.00 0.00 0.00 46 1009.6
20260505234514 75 122 2.0 9.0 0.00 0.00 0.00 45 1009.6
20260505233027 76 185 1.0 5.0 0.00 0.00 0.00 43 1009.5
20260505231525 76 103 0.0 2.0 0.00 0.00 0.00 45 1009.4
20260505230026 77 262 1.0 6.0 0.00 0.00 0.00 43 1009.3
20260505224532 77 67 1.0 7.0 0.00 0.00 0.00 43 1009.3
20260505223028 77 227 0.0 9.0 0.00 0.00 0.00 42 1009.3
20260505221516 79 360 1.0 13.0 0.00 0.00 0.00 41 1009.4
20260505220025 79 228 3.0 13.0 0.00 0.00 0.00 37 1009.3
20260505214547 80 269 2.0 9.0 0.00 0.00 0.00 37 1009.2
20260505213043 80 220 3.0 10.0 0.00 0.00 0.00 35 1009.2
20260505211526 80 117 1.0 11.0 0.00 0.00 0.00 35 1009.1
20260505210029 80 150 4.0 14.0 0.00 0.00 0.00 34 1009.1
20260505204530 81 293 2.0 13.0 0.00 0.00 0.00 34 1009.2
20260505203022 81 68 2.0 15.0 0.00 0.00 0.00 33 1009.2
20260505201523 82 229 3.0 13.0 0.00 0.00 0.00 32 1009.2
20260505200017 81 291 4.0 14.0 0.00 0.00 0.00 31 1009.1
20260505194527 82 180 3.0 17.0 0.00 0.00 0.00 33 1009.1
20260505193040 81 193 1.0 10.0 0.00 0.00 0.00 34 1009.3
20260505191527 81 211 3.0 19.0 0.00 0.00 0.00 36 1009.4
20260505190032 81 241 2.0 12.0 0.00 0.00 0.00 35 1009.6
20260505184525 81 215 3.0 12.0 0.00 0.00 0.00 36 1009.8
20260505183036 81 262 4.0 9.0 0.00 0.00 0.00 37 1010.1
20260505181521 81 169 3.0 14.0 0.00 0.00 0.00 41 1010.2
20260505180031 80 265 2.0 9.0 0.00 0.00 0.00 42 1010.4
20260505174531 80 148 2.0 12.0 0.00 0.00 0.00 40 1010.8
20260505173035 80 188 2.0 9.0 0.00 0.00 0.00 42 1010.9
20260505171533 79 178 2.0 6.0 0.00 0.00 0.00 44 1011.0
20260505170026 79 304 2.0 7.0 0.00 0.00 0.00 44 1011.1
20260505164533 79 226 1.0 6.0 0.00 0.00 0.00 46 1011.0
20260505163027 78 243 1.0 6.0 0.00 0.00 0.00 45 1011.2
20260505161524 77 147 2.0 6.0 0.00 0.00 0.00 45 1011.2
20260505153032 74 36 0.0 9.0 0.00 0.00 0.00 52 1011.8
20260505151508 73 142 2.0 6.0 0.00 0.00 0.00 49 1011.9
20260505124514 64 238 2.0 5.0 0.00 0.00 0.00 63 1012.1
20260505123008 63 255 1.0 5.0 0.00 0.00 0.00 65 1011.9
20260505121507 62 181 2.0 4.0 0.00 0.00 0.00 69 1011.9
20260505120016 61 162 0.0 3.0 0.00 0.00 0.00 72 1011.9
20260505114520 60 229 0.0 2.0 0.00 0.00 0.00 76 1011.8
20260505113019 58 193 0.0 2.0 0.00 0.00 0.00 80 1011.8
20260505111519 57 206 0.0 2.0 0.00 0.00 0.00 85 1011.6
20260505101520 56 248 0.0 0.0 0.00 0.00 0.00 83 1011.3
20260505100029 56 248 0.0 2.0 0.00 0.00 0.00 82 1011.1
20260505094522 57 250 0.0 0.0 0.00 0.00 0.00 82 1011.0
20260505093022 57 250 0.0 0.0 0.00 0.00 0.00 82 1010.9
20260505091529 57 250 0.0 2.0 0.00 0.00 0.00 82 1011.0
20260505090036 57 193 0.0 2.0 0.00 0.00 0.00 83 1011.0
20260505084515 57 236 0.0 1.0 0.00 0.00 0.00 84 1010.8
20260505083013 57 234 0.0 2.0 0.00 0.00 0.00 83 1010.9
20260505081535 58 203 0.0 2.0 0.00 0.00 0.00 81 1010.9
20260505080044 58 220 0.0 1.0 0.00 0.00 0.00 79 1010.8
20260505074528 57 209 0.0 2.0 0.00 0.00 0.00 80 1010.9
20260505073022 57 240 0.0 2.0 0.00 0.00 0.00 79 1010.9
20260505071526 58 282 0.0 2.0 0.00 0.00 0.00 78 1010.9
20260505070022 57 229 0.0 2.0 0.00 0.00 0.00 78 1010.8
20260505064517 56 195 0.0 0.0 0.00 0.00 0.00 78 1010.8
20260505063023 56 195 0.0 2.0 0.00 0.00 0.00 78 1010.8
20260505061516 56 195 0.0 2.0 0.00 0.00 0.00 76 1010.9
20260505060016 56 199 0.0 2.0 0.00 0.00 0.00 75 1011.0
20260505054509 56 199 0.0 0.0 0.00 0.00 0.00 75 1011.0
20260505053013 57 199 0.0 2.0 0.00 0.00 0.00 74 1011.0
20260505051504 57 101 0.0 0.0 0.00 0.00 0.00 72 1011.1